Time,TemperatureF,DewpointF,PressureIn,WindDirection,WindDirectionDegrees,WindSpeedMPH,WindSpeedGustMPH,Humidity,HourlyPrecipIn,Conditions,Clouds,dailyrainin,SoftwareType,DateUTC
2015-06-03 00:00:00,69.0,68.1,29.94,West,263,0.0,1.0,97,0.00,,,0.74,Wunderground v.1.15,2015-06-03 04:00:00,
2015-06-03 00:05:00,69.0,68.1,29.94,West,263,0.0,1.0,97,0.00,,,0.00,Wunderground v.1.15,2015-06-03 04:05:00,
2015-06-03 00:10:00,69.0,68.1,29.95,West,263,0.0,1.0,97,0.00,,,0.00,Wunderground v.1.15,2015-06-03 04:10:00,
2015-06-03 00:15:00,69.0,68.1,29.95,West,263,0.0,1.0,97,0.00,,,0.00,Wunderground v.1.15,2015-06-03 04:15:00,
2015-06-03 00:20:00,69.0,68.1,29.94,West,263,0.0,1.0,97,0.00,,,0.00,Wunderground v.1.15,2015-06-03 04:20:00,
2015-06-03 00:25:00,69.0,68.1,29.94,West,263,0.0,1.0,97,0.00,,,0.00,Wunderground v.1.15,2015-06-03 04:25:00,
2015-06-03 00:30:00,69.0,68.1,29.94,West,263,0.0,1.0,97,0.00,,,0.00,Wunderground v.1.15,2015-06-03 04:30:00,
2015-06-03 00:35:00,69.0,68.1,29.94,West,263,0.0,1.0,97,0.00,,,0.00,Wunderground v.1.15,2015-06-03 04:35:00,
2015-06-03 00:45:00,69.0,68.1,29.94,West,263,0.0,1.0,97,0.00,,,0.00,Wunderground v.1.15,2015-06-03 04:45:00,
2015-06-03 00:50:00,69.0,68.1,29.93,West,263,0.0,1.0,97,0.00,,,0.00,Wunderground v.1.15,2015-06-03 04:50:00,
2015-06-03 00:55:00,69.1,68.2,29.93,West,263,0.0,1.0,97,0.00,,,0.00,Wunderground v.1.15,2015-06-03 04:55:00,
2015-06-03 01:05:00,69.1,68.2,29.94,ESE,122,0.0,1.0,97,0.00,,,0.00,Wunderground v.1.15,2015-06-03 05:05:00,
2015-06-03 01:10:00,69.1,68.2,29.94,ESE,122,0.0,1.0,97,0.00,,,0.00,Wunderground v.1.15,2015-06-03 05:10:00,
2015-06-03 01:15:00,69.0,68.1,29.94,ESE,122,0.0,1.0,97,0.00,,,0.00,Wunderground v.1.15,2015-06-03 05:15:00,
2015-06-03 01:20:00,69.0,68.1,29.94,ESE,122,0.0,1.0,97,0.00,,,0.00,Wunderground v.1.15,2015-06-03 05:20:00,
2015-06-03 01:25:00,69.0,68.1,29.94,ESE,122,0.0,1.0,97,0.00,,,0.00,Wunderground v.1.15,2015-06-03 05:25:00,
2015-06-03 01:30:00,69.1,68.5,29.94,ESE,122,0.0,1.0,98,0.00,,,0.00,Wunderground v.1.15,2015-06-03 05:30:00,
2015-06-03 01:35:00,69.1,68.2,29.94,ESE,122,0.0,1.0,97,0.00,,,0.00,Wunderground v.1.15,2015-06-03 05:35:00,
2015-06-03 01:40:00,69.0,68.4,29.94,ESE,122,0.0,1.0,98,0.00,,,0.00,Wunderground v.1.15,2015-06-03 05:40:00,
2015-06-03 01:45:00,69.0,68.4,29.94,ESE,122,0.0,1.0,98,0.00,,,0.00,Wunderground v.1.15,2015-06-03 05:45:00,
2015-06-03 01:50:00,69.0,68.1,29.94,ESE,122,0.0,1.0,97,0.00,,,0.00,Wunderground v.1.15,2015-06-03 05:50:00,
2015-06-03 01:55:00,69.0,68.1,29.94,ESE,122,0.0,1.0,97,0.00,,,0.00,Wunderground v.1.15,2015-06-03 05:55:00,
2015-06-03 02:05:00,69.0,68.4,29.94,ESE,122,0.0,1.0,98,0.00,,,0.00,Wunderground v.1.15,2015-06-03 06:05:00,
2015-06-03 02:10:00,69.0,68.4,29.94,ESE,122,0.0,1.0,98,0.00,,,0.00,Wunderground v.1.15,2015-06-03 06:10:00,
2015-06-03 02:15:00,69.0,68.4,29.94,ESE,122,0.0,1.0,98,0.00,,,0.00,Wunderground v.1.15,2015-06-03 06:15:00,
2015-06-03 02:20:00,69.0,68.4,29.94,ESE,122,0.0,1.0,98,0.00,,,0.00,Wunderground v.1.15,2015-06-03 06:20:00,
2015-06-03 02:25:00,69.1,68.5,29.94,ESE,122,0.0,1.0,98,0.00,,,0.00,Wunderground v.1.15,2015-06-03 06:25:00,
2015-06-03 02:30:00,69.1,68.5,29.94,ESE,122,0.0,1.0,98,0.00,,,0.00,Wunderground v.1.15,2015-06-03 06:30:00,
2015-06-03 02:35:00,69.1,68.5,29.94,ESE,122,0.0,1.0,98,0.00,,,0.00,Wunderground v.1.15,2015-06-03 06:35:00,
2015-06-03 02:40:00,69.2,68.6,29.94,ESE,122,0.0,1.0,98,0.00,,,0.00,Wunderground v.1.15,2015-06-03 06:40:00,
2015-06-03 02:45:00,69.2,68.6,29.93,ESE,122,0.0,1.0,98,0.00,,,0.00,Wunderground v.1.15,2015-06-03 06:45:00,
2015-06-03 02:50:00,69.3,68.7,29.94,SE,130,0.0,1.0,98,0.00,,,0.00,Wunderground v.1.15,2015-06-03 06:50:00,
2015-06-03 02:55:00,69.2,68.6,29.93,ESE,122,0.0,1.0,98,0.00,,,0.00,Wunderground v.1.15,2015-06-03 06:55:00,
2015-06-03 03:00:00,69.1,68.5,29.93,ESE,122,0.0,0.0,98,0.00,,,0.00,Wunderground v.1.15,2015-06-03 07:00:00,
2015-06-03 03:10:00,68.9,68.0,29.93,East,100,0.0,0.0,97,0.00,,,0.00,Wunderground v.1.15,2015-06-03 07:10:00,
2015-06-03 03:15:00,68.8,67.9,29.93,South,179,0.0,0.0,97,0.00,,,0.00,Wunderground v.1.15,2015-06-03 07:15:00,
2015-06-03 03:20:00,68.8,67.9,29.92,South,188,0.0,0.0,97,0.00,,,0.00,Wunderground v.1.15,2015-06-03 07:20:00,
2015-06-03 03:25:00,68.7,68.1,29.92,South,188,0.0,0.0,98,0.00,,,0.00,Wunderground v.1.15,2015-06-03 07:25:00,
2015-06-03 03:30:00,68.8,68.2,29.92,SE,140,0.0,0.0,98,0.00,,,0.00,Wunderground v.1.15,2015-06-03 07:30:00,
2015-06-03 03:35:00,68.7,68.1,29.92,SE,140,0.0,0.0,98,0.00,,,0.00,Wunderground v.1.15,2015-06-03 07:35:00,
2015-06-03 03:40:00,68.8,68.2,29.92,SE,140,0.0,0.0,98,0.00,,,0.00,Wunderground v.1.15,2015-06-03 07:40:00,
2015-06-03 03:45:00,68.8,68.2,29.93,SE,140,0.0,0.0,98,0.00,,,0.00,Wunderground v.1.15,2015-06-03 07:45:00,
2015-06-03 03:50:00,68.8,68.2,29.93,SE,140,0.0,0.0,98,0.00,,,0.00,Wunderground v.1.15,2015-06-03 07:50:00,
2015-06-03 03:55:00,68.8,68.2,29.93,SE,140,0.0,0.0,98,0.00,,,0.00,Wunderground v.1.15,2015-06-03 07:55:00,
2015-06-03 04:00:00,68.8,68.2,29.93,SE,140,0.0,0.0,98,0.00,,,0.00,Wunderground v.1.15,2015-06-03 08:00:00,
2015-06-03 04:10:00,68.8,68.2,29.93,SE,140,0.0,0.0,98,0.00,,,0.00,Wunderground v.1.15,2015-06-03 08:10:00,
2015-06-03 04:15:00,68.9,68.3,29.92,SE,140,0.0,0.0,98,0.00,,,0.00,Wunderground v.1.15,2015-06-03 08:15:00,
2015-06-03 04:20:00,68.9,68.3,29.92,SE,140,0.0,0.0,98,0.00,,,0.00,Wunderground v.1.15,2015-06-03 08:20:00,
2015-06-03 04:25:00,69.0,68.4,29.92,SE,140,0.0,0.0,98,0.00,,,0.00,Wunderground v.1.15,2015-06-03 08:25:00,
2015-06-03 04:30:00,68.9,68.3,29.92,SE,140,0.0,0.0,98,0.00,,,0.00,Wunderground v.1.15,2015-06-03 08:30:00,
2015-06-03 04:35:00,69.0,68.4,29.91,SE,140,0.0,0.0,98,0.00,,,0.00,Wunderground v.1.15,2015-06-03 08:35:00,
2015-06-03 04:40:00,69.0,68.4,29.91,WSW,240,0.0,0.0,98,0.00,,,0.00,Wunderground v.1.15,2015-06-03 08:40:00,
2015-06-03 04:45:00,68.9,68.3,29.91,WSW,239,0.0,0.0,98,0.00,,,0.00,Wunderground v.1.15,2015-06-03 08:45:00,
2015-06-03 04:50:00,69.0,68.4,29.92,WSW,239,0.0,0.0,98,0.00,,,0.00,Wunderground v.1.15,2015-06-03 08:50:00,
2015-06-03 04:55:00,69.0,68.4,29.92,WSW,239,0.0,0.0,98,0.00,,,0.00,Wunderground v.1.15,2015-06-03 08:55:00,
2015-06-03 05:00:00,68.9,68.3,29.92,WSW,239,0.0,0.0,98,0.00,,,0.00,Wunderground v.1.15,2015-06-03 09:00:00,
2015-06-03 05:05:00,68.9,68.3,29.92,WSW,239,0.0,0.0,98,0.00,,,0.00,Wunderground v.1.15,2015-06-03 09:05:00,
2015-06-03 05:15:00,68.9,68.3,29.92,WSW,239,0.0,0.0,98,0.00,,,0.00,Wunderground v.1.15,2015-06-03 09:15:00,
2015-06-03 05:20:00,68.8,68.2,29.91,WSW,239,0.0,0.0,98,0.00,,,0.00,Wunderground v.1.15,2015-06-03 09:20:00,
2015-06-03 05:25:00,68.8,68.2,29.91,WSW,239,0.0,0.0,98,0.00,,,0.00,Wunderground v.1.15,2015-06-03 09:25:00,
2015-06-03 05:30:00,68.8,68.2,29.91,WSW,239,0.0,0.0,98,0.00,,,0.00,Wunderground v.1.15,2015-06-03 09:30:00,
2015-06-03 05:35:00,68.8,68.2,29.91,WSW,239,0.0,0.0,98,0.00,,,0.00,Wunderground v.1.15,2015-06-03 09:35:00,
2015-06-03 05:40:00,68.7,68.1,29.91,WSW,239,0.0,0.0,98,0.00,,,0.00,Wunderground v.1.15,2015-06-03 09:40:00,
2015-06-03 05:45:00,68.6,68.0,29.91,WSW,239,0.0,0.0,98,0.00,,,0.00,Wunderground v.1.15,2015-06-03 09:45:00,
2015-06-03 05:50:00,68.5,67.9,29.91,WSW,239,0.0,0.0,98,0.00,,,0.00,Wunderground v.1.15,2015-06-03 09:50:00,
2015-06-03 05:55:00,68.5,67.9,29.91,WSW,239,0.0,0.0,98,0.00,,,0.00,Wunderground v.1.15,2015-06-03 09:55:00,
2015-06-03 06:00:00,68.4,67.8,29.91,WSW,239,0.0,0.0,98,0.00,,,0.00,Wunderground v.1.15,2015-06-03 10:00:00,
2015-06-03 06:05:00,68.4,67.8,29.91,WSW,239,0.0,0.0,98,0.00,,,0.00,Wunderground v.1.15,2015-06-03 10:05:00,
2015-06-03 06:20:00,68.6,68.0,29.90,WSW,239,0.0,0.0,98,0.00,,,0.00,Wunderground v.1.15,2015-06-03 10:20:00,
2015-06-03 06:25:00,68.6,68.0,29.90,WSW,239,0.0,0.0,98,0.00,,,0.00,Wunderground v.1.15,2015-06-03 10:25:00,
2015-06-03 06:30:00,68.6,68.0,29.90,WSW,239,0.0,0.0,98,0.00,,,0.00,Wunderground v.1.15,2015-06-03 10:30:00,
2015-06-03 06:35:00,68.6,68.0,29.91,WSW,239,0.0,0.0,98,0.00,,,0.00,Wunderground v.1.15,2015-06-03 10:35:00,
2015-06-03 06:40:00,68.5,67.9,29.91,WSW,239,0.0,0.0,98,0.00,,,0.00,Wunderground v.1.15,2015-06-03 10:40:00,
2015-06-03 06:45:00,68.5,67.9,29.91,WSW,239,0.0,0.0,98,0.00,,,0.00,Wunderground v.1.15,2015-06-03 10:45:00,
2015-06-03 06:50:00,68.5,67.9,29.91,WSW,239,0.0,0.0,98,0.00,,,0.00,Wunderground v.1.15,2015-06-03 10:50:00,
2015-06-03 06:55:00,68.4,67.8,29.91,WSW,239,0.0,0.0,98,0.00,,,0.00,Wunderground v.1.15,2015-06-03 10:55:00,
2015-06-03 07:00:00,68.4,67.8,29.91,WSW,239,0.0,0.0,98,0.00,,,0.00,Wunderground v.1.15,2015-06-03 11:00:00,
2015-06-03 07:05:00,68.3,67.7,29.91,WSW,239,0.0,0.0,98,0.00,,,0.00,Wunderground v.1.15,2015-06-03 11:05:00,
2015-06-03 07:10:00,68.3,67.7,29.91,WSW,239,0.0,0.0,98,0.00,,,0.00,Wunderground v.1.15,2015-06-03 11:10:00,
2015-06-03 07:20:00,68.5,67.9,29.91,WSW,239,0.0,0.0,98,0.00,,,0.00,Wunderground v.1.15,2015-06-03 11:20:00,
2015-06-03 07:25:00,68.7,68.1,29.91,WSW,239,0.0,0.0,98,0.00,,,0.00,Wunderground v.1.15,2015-06-03 11:25:00,
2015-06-03 07:30:00,68.8,68.2,29.91,WSW,239,0.0,0.0,98,0.00,,,0.00,Wunderground v.1.15,2015-06-03 11:30:00,
2015-06-03 07:35:00,68.9,68.3,29.92,SSE,155,0.0,0.0,98,0.00,,,0.00,Wunderground v.1.15,2015-06-03 11:35:00,
2015-06-03 07:40:00,69.0,68.4,29.92,SSE,155,0.0,0.0,98,0.00,,,0.00,Wunderground v.1.15,2015-06-03 11:40:00,
2015-06-03 07:45:00,69.2,68.6,29.92,SW,219,0.0,0.0,98,0.00,,,0.00,Wunderground v.1.15,2015-06-03 11:45:00,
2015-06-03 07:50:00,69.4,68.8,29.92,SW,229,0.0,0.0,98,0.00,,,0.00,Wunderground v.1.15,2015-06-03 11:50:00,
2015-06-03 07:55:00,69.7,69.1,29.92,NW,320,0.0,0.0,98,0.00,,,0.00,Wunderground v.1.15,2015-06-03 11:55:00,
2015-06-03 08:00:00,70.0,69.4,29.92,WSW,251,0.0,0.0,98,0.00,,,0.00,Wunderground v.1.15,2015-06-03 12:00:00,
2015-06-03 08:05:00,70.1,69.5,29.92,WSW,255,0.0,0.0,98,0.00,,,0.00,Wunderground v.1.15,2015-06-03 12:05:00,
2015-06-03 08:10:00,70.3,69.7,29.92,WSW,255,0.0,0.0,98,0.00,,,0.00,Wunderground v.1.15,2015-06-03 12:10:00,
2015-06-03 08:20:00,70.7,69.8,29.92,WNW,300,0.0,0.0,97,0.00,,,0.00,Wunderground v.1.15,2015-06-03 12:20:00,
2015-06-03 08:25:00,70.8,69.9,29.92,WNW,300,0.0,0.0,97,0.00,,,0.00,Wunderground v.1.15,2015-06-03 12:25:00,
2015-06-03 08:30:00,70.8,69.6,29.92,SW,236,0.0,0.0,96,0.00,,,0.00,Wunderground v.1.15,2015-06-03 12:30:00,
2015-06-03 08:35:00,71.1,69.9,29.92,SW,236,0.0,0.0,96,0.00,,,0.00,Wunderground v.1.15,2015-06-03 12:35:00,
2015-06-03 08:40:00,71.2,69.7,29.92,West,271,0.0,0.0,95,0.00,,,0.00,Wunderground v.1.15,2015-06-03 12:40:00,
2015-06-03 08:45:00,71.4,69.9,29.92,West,271,0.0,0.0,95,0.00,,,0.00,Wunderground v.1.15,2015-06-03 12:45:00,
2015-06-03 08:50:00,71.7,69.9,29.92,West,271,0.0,0.0,94,0.00,,,0.00,Wunderground v.1.15,2015-06-03 12:50:00,
2015-06-03 08:55:00,72.1,70.6,29.92,West,271,0.0,0.0,95,0.00,,,0.00,Wunderground v.1.15,2015-06-03 12:55:00,
2015-06-03 09:00:00,72.5,70.7,29.92,ENE,59,0.0,0.0,94,0.00,,,0.00,Wunderground v.1.15,2015-06-03 13:00:00,
2015-06-03 09:05:00,72.9,71.1,29.92,WNW,293,0.0,0.0,94,0.00,,,0.00,Wunderground v.1.15,2015-06-03 13:05:00,
2015-06-03 09:10:00,73.5,71.0,29.92,East,89,0.0,0.0,92,0.00,,,0.00,Wunderground v.1.15,2015-06-03 13:10:00,
2015-06-03 09:15:00,74.2,71.4,29.92,East,89,0.0,0.0,91,0.00,,,0.00,Wunderground v.1.15,2015-06-03 13:15:00,
2015-06-03 09:25:00,75.5,71.4,29.93,SSW,195,0.0,0.0,87,0.00,,,0.00,Wunderground v.1.15,2015-06-03 13:25:00,
2015-06-03 09:30:00,76.2,72.0,29.93,SSE,153,0.0,0.0,87,0.00,,,0.00,Wunderground v.1.15,2015-06-03 13:30:00,
2015-06-03 09:35:00,76.5,71.3,29.93,ESE,106,0.0,0.0,84,0.00,,,0.00,Wunderground v.1.15,2015-06-03 13:35:00,
2015-06-03 09:40:00,77.1,72.2,29.93,ESE,121,0.0,0.0,85,0.00,,,0.00,Wunderground v.1.15,2015-06-03 13:40:00,
2015-06-03 09:45:00,77.6,71.3,29.93,NW,309,0.0,0.0,81,0.00,,,0.00,Wunderground v.1.15,2015-06-03 13:45:00,
2015-06-03 09:50:00,78.1,71.8,29.93,WSW,239,0.0,0.0,81,0.00,,,0.00,Wunderground v.1.15,2015-06-03 13:50:00,
2015-06-03 09:55:00,78.6,72.3,29.93,NE,52,0.0,0.0,81,0.00,,,0.00,Wunderground v.1.15,2015-06-03 13:55:00,
2015-06-03 10:00:00,79.4,71.9,29.93,SE,130,0.0,0.0,78,0.00,,,0.00,Wunderground v.1.15,2015-06-03 14:00:00,
2015-06-03 10:05:00,80.1,72.2,29.94,ESE,123,0.0,0.0,77,0.00,,,0.00,Wunderground v.1.15,2015-06-03 14:05:00,
2015-06-03 10:10:00,80.6,71.9,29.94,ESE,123,0.0,0.0,75,0.00,,,0.00,Wunderground v.1.15,2015-06-03 14:10:00,
2015-06-03 10:15:00,81.4,72.3,29.94,ESE,122,0.0,0.0,74,0.00,,,0.00,Wunderground v.1.15,2015-06-03 14:15:00,
2015-06-03 10:25:00,81.4,71.1,29.93,NNW,330,0.0,0.0,71,0.00,,,0.00,Wunderground v.1.15,2015-06-03 14:25:00,
2015-06-03 10:30:00,81.4,72.3,29.93,WSW,256,0.0,0.0,74,0.00,,,0.00,Wunderground v.1.15,2015-06-03 14:30:00,
2015-06-03 10:35:00,81.6,71.3,29.93,WSW,249,0.0,0.0,71,0.00,,,0.00,Wunderground v.1.15,2015-06-03 14:35:00,
2015-06-03 10:40:00,81.9,71.6,29.93,East,88,0.0,0.0,71,0.00,,,0.00,Wunderground v.1.15,2015-06-03 14:40:00,
2015-06-03 10:45:00,82.3,70.7,29.93,WNW,288,0.0,0.0,68,0.00,,,0.00,Wunderground v.1.15,2015-06-03 14:45:00,
2015-06-03 10:50:00,82.6,71.4,29.93,North,4,0.0,0.0,69,0.00,,,0.00,Wunderground v.1.15,2015-06-03 14:50:00,
2015-06-03 10:55:00,83.1,71.0,29.93,North,352,0.0,0.0,67,0.00,,,0.00,Wunderground v.1.15,2015-06-03 14:55:00,
2015-06-03 11:00:00,82.8,71.2,29.93,NW,323,0.0,0.0,68,0.00,,,0.00,Wunderground v.1.15,2015-06-03 15:00:00,
2015-06-03 11:05:00,83.4,70.8,29.93,West,279,0.0,0.0,66,0.00,,,0.00,Wunderground v.1.15,2015-06-03 15:05:00,
2015-06-03 11:10:00,84.4,70.4,29.93,SW,233,0.0,0.0,63,0.00,,,0.00,Wunderground v.1.15,2015-06-03 15:10:00,
2015-06-03 11:15:00,85.2,72.1,29.93,West,273,0.0,0.0,65,0.00,,,0.00,Wunderground v.1.15,2015-06-03 15:15:00,
2015-06-03 11:20:00,85.6,71.1,29.93,ESE,105,0.0,0.0,62,0.00,,,0.00,Wunderground v.1.15,2015-06-03 15:20:00,
2015-06-03 11:30:00,85.4,69.9,29.93,West,269,0.0,0.0,60,0.00,,,0.00,Wunderground v.1.15,2015-06-03 15:30:00,
2015-06-03 11:35:00,85.7,71.2,29.93,SSW,193,0.0,0.0,62,0.00,,,0.00,Wunderground v.1.15,2015-06-03 15:35:00,
2015-06-03 11:40:00,86.4,69.9,29.93,SSW,209,0.0,0.0,58,0.00,,,0.00,Wunderground v.1.15,2015-06-03 15:40:00,
2015-06-03 11:45:00,86.3,69.8,29.93,NE,48,0.0,0.0,58,0.00,,,0.00,Wunderground v.1.15,2015-06-03 15:45:00,
2015-06-03 11:50:00,85.9,71.4,29.93,WSW,254,0.0,0.0,62,0.00,,,0.00,Wunderground v.1.15,2015-06-03 15:50:00,
2015-06-03 11:55:00,86.1,71.1,29.93,NW,306,0.0,0.0,61,0.00,,,0.00,Wunderground v.1.15,2015-06-03 15:55:00,
2015-06-03 12:05:00,86.3,72.2,29.93,East,94,0.0,0.0,63,0.00,,,0.00,Wunderground v.1.15,2015-06-03 16:05:00,
2015-06-03 12:15:00,88.1,71.5,29.93,SW,220,0.0,0.0,58,0.00,,,0.00,Wunderground v.1.15,2015-06-03 16:15:00,
2015-06-03 12:25:00,87.4,71.3,29.93,NNE,21,0.0,0.0,59,0.00,,,0.00,Wunderground v.1.15,2015-06-03 16:25:00,
2015-06-03 12:35:00,86.6,70.6,29.92,SSW,195,0.0,0.0,59,0.00,,,0.00,Wunderground v.1.15,2015-06-03 16:35:00,
2015-06-03 12:45:00,86.0,71.9,29.92,East,96,0.0,0.0,63,0.00,,,0.00,Wunderground v.1.15,2015-06-03 16:45:00,
2015-06-03 12:55:00,85.6,70.1,29.92,NNW,347,0.0,0.0,60,0.00,,,0.00,Wunderground v.1.15,2015-06-03 16:55:00,
2015-06-03 13:05:00,86.0,69.0,29.92,West,281,0.0,0.0,57,0.00,,,0.00,Wunderground v.1.15,2015-06-03 17:05:00,
2015-06-03 13:15:00,85.9,70.9,29.91,NNW,336,0.0,0.0,61,0.00,,,0.00,Wunderground v.1.15,2015-06-03 17:15:00,
2015-06-03 13:25:00,86.6,69.6,29.91,West,271,0.0,0.0,57,0.00,,,0.00,Wunderground v.1.15,2015-06-03 17:25:00,
2015-06-03 13:30:00,86.7,70.7,29.92,East,97,0.0,0.0,59,0.00,,,0.00,Wunderground v.1.15,2015-06-03 17:30:00,
2015-06-03 13:40:00,86.3,70.8,29.91,NNW,332,0.0,0.0,60,0.00,,,0.00,Wunderground v.1.15,2015-06-03 17:40:00,
2015-06-03 13:45:00,86.5,71.5,29.91,WNW,283,0.0,0.0,61,0.00,,,0.00,Wunderground v.1.15,2015-06-03 17:45:00,
2015-06-03 13:55:00,86.5,70.0,29.91,WNW,290,0.0,0.0,58,0.00,,,0.00,Wunderground v.1.15,2015-06-03 17:55:00,
2015-06-03 14:05:00,86.1,69.6,29.91,WNW,290,0.0,0.0,58,0.00,,,0.00,Wunderground v.1.15,2015-06-03 18:05:00,
2015-06-03 14:15:00,86.2,70.2,29.90,ESE,113,0.0,0.0,59,0.00,,,0.00,Wunderground v.1.15,2015-06-03 18:15:00,
2015-06-03 14:25:00,86.6,71.1,29.90,WSW,239,0.0,0.0,60,0.00,,,0.00,Wunderground v.1.15,2015-06-03 18:25:00,
2015-06-03 14:35:00,86.0,71.0,29.90,SE,124,0.0,0.0,61,0.00,,,0.00,Wunderground v.1.15,2015-06-03 18:35:00,
2015-06-03 14:45:00,86.4,70.4,29.89,West,276,0.0,0.0,59,0.00,,,0.00,Wunderground v.1.15,2015-06-03 18:45:00,
2015-06-03 14:50:00,87.5,71.9,29.89,ESE,109,0.0,0.0,60,0.00,,,0.00,Wunderground v.1.15,2015-06-03 18:50:00,
2015-06-03 14:55:00,87.7,71.6,29.89,WSW,255,0.0,0.0,59,0.00,,,0.00,Wunderground v.1.15,2015-06-03 18:55:00,
2015-06-03 15:05:00,87.6,71.0,29.89,ENE,59,0.0,0.0,58,0.00,,,0.00,Wunderground v.1.15,2015-06-03 19:05:00,
2015-06-03 15:10:00,88.2,72.1,29.88,NNW,342,0.0,0.0,59,0.00,,,0.00,Wunderground v.1.15,2015-06-03 19:10:00,
2015-06-03 15:15:00,89.3,72.1,29.88,ESE,112,0.0,0.0,57,0.00,,,0.00,Wunderground v.1.15,2015-06-03 19:15:00,
2015-06-03 15:25:00,90.2,71.8,29.88,SW,234,0.0,0.0,55,0.00,,,0.00,Wunderground v.1.15,2015-06-03 19:25:00,
2015-06-03 15:35:00,90.1,71.8,29.88,North,3,0.0,0.0,55,0.00,,,0.00,Wunderground v.1.15,2015-06-03 19:35:00,
2015-06-03 15:40:00,90.6,72.2,29.88,NNE,18,0.0,0.0,55,0.00,,,0.00,Wunderground v.1.15,2015-06-03 19:40:00,
2015-06-03 15:45:00,90.7,71.8,29.87,WNW,301,0.0,0.0,54,0.00,,,0.00,Wunderground v.1.15,2015-06-03 19:45:00,